Weather History for KHLC - September, 2014

Change the Weather History Date:

Sunday, September 14, 2014

  Actual Average Record
Temperature  
Mean Temperature 62 °F 68 °F  
Max Temperature 82 °F 83 °F 98 °F (1955)
Min Temperature 41 °F 54 °F 34 °F (1945)
Degree Days  
Heating Degree Days 4    
Growing Degree Days 12 (Base 50)    
Moisture  
Dew Point 51 °F    
Average Humidity 74    
Maximum Humidity 93    
Minimum Humidity 45    
Precipitation  
Precipitation T in 0.05 in 0.43 in (1996)
Month to date precipitation 0.30 0.95  
Year to date precipitation 20.12 18.83  
Sea Level Pressure  
Sea Level Pressure 30.06 in    
Wind  
Wind Speed 6 mph (ESE)    
Max Wind Speed 15 mph    
Max Gust Speed 23 mph    
Visibility 10 miles    
Events Rain    
T = Trace of Precipitation, MM = Missing Value Source: NWS Daily Summary

Daily Weather History Graph

Daily Weather History Graph

Search for Another Location

Airport or City:

Trip Planner

Search our weather history database for the weather conditions in past years. The results will help you decide how hot, cold, wet, or windy it might be!

Date:

Astronomy

Sep. 14, 2014 Rise Set
Actual Time 7:19 AM CDT 7:49 PM CDT
Civil Twilight 6:52 AM CDT 8:16 PM CDT
Nautical Twilight 6:20 AM CDT 8:47 PM CDT
Astronomical Twilight 5:48 AM CDT 9:20 PM CDT
Moon 11:45 PM CDT (9/14) 1:25 PM CDT (9/14)
Length of Visible Light 13h 23m
Length of Day
12h 29m
Waning Gibbous, 64% of the Moon is Illuminated
Sep 14
Waning Gibbous
Sep 15
Last Quarter
Sep 24
New
Oct 1
First Quarter
Oct 8
Full

Hourly Weather History & Observations

Time (CDT) Temp. Windchill Dew Point Humidity Pressure Visibility Wind Dir Wind Speed Gust Speed Precip Events Conditions
12:53 AM 46.0 °F 43.9 °F 42.1 °F 86% 30.20 in 10.0 mi East 4.6 mph - N/A   Clear
1:53 AM 45.0 °F 41.8 °F 42.1 °F 90% 30.19 in 10.0 mi East 5.8 mph - N/A   Clear
2:53 AM 45.0 °F 41.8 °F 41.0 °F 86% 30.18 in 10.0 mi ENE 5.8 mph - N/A   Clear
3:53 AM 44.1 °F 42.5 °F 39.9 °F 85% 30.17 in 10.0 mi East 3.5 mph - N/A   Clear
4:53 AM 43.0 °F 40.3 °F 39.9 °F 89% 30.15 in 10.0 mi East 4.6 mph - N/A   Clear
5:53 AM 41.0 °F 39.0 °F 39.0 °F 93% 30.16 in 10.0 mi East 3.5 mph - N/A   Clear
6:53 AM 42.1 °F 39.2 °F 39.9 °F 92% 30.14 in 10.0 mi East 4.6 mph - N/A   Clear
7:53 AM 43.0 °F 40.3 °F 41.0 °F 93% 30.16 in 10.0 mi East 4.6 mph - N/A   Clear
8:53 AM 46.9 °F - 44.1 °F 90% 30.16 in 10.0 mi ESE 3.5 mph - N/A   Clear
9:53 AM 55.0 °F - 48.0 °F 77% 30.15 in 10.0 mi SSE 5.8 mph - N/A   Clear
10:53 AM 61.0 °F - 50.0 °F 67% 30.14 in 10.0 mi South 5.8 mph - N/A   Clear
11:53 AM 64.9 °F - 53.1 °F 65% 30.11 in 10.0 mi SSE 9.2 mph - 0.00 in Rain Light Rain
12:53 PM 70.0 °F - 54.0 °F 57% 30.07 in 10.0 mi SE 12.7 mph 20.7 mph 0.00 in   Clear
1:53 PM 71.1 °F - 55.0 °F 57% 30.04 in 10.0 mi SSE 15.0 mph 23.0 mph N/A   Clear
2:53 PM 72.0 °F - 57.0 °F 59% 30.02 in 10.0 mi SE 13.8 mph - 0.00 in   Scattered Clouds
3:53 PM 75.9 °F - 57.0 °F 52% 29.99 in 10.0 mi SE 10.4 mph - N/A   Overcast
4:53 PM 80.1 °F - 57.9 °F 47% 29.95 in 10.0 mi SE 8.1 mph - N/A   Partly Cloudy
5:53 PM 82.0 °F - 59.0 °F 45% 29.94 in 10.0 mi SSE 9.2 mph - N/A   Clear
6:53 PM 80.1 °F - 60.1 °F 50% 29.92 in 10.0 mi ESE 6.9 mph - N/A   Clear
7:53 PM 73.9 °F - 61.0 °F 64% 29.90 in 10.0 mi ESE 8.1 mph - N/A   Clear
8:53 PM 69.1 °F - 60.1 °F 73% 29.92 in 10.0 mi East 10.4 mph - N/A   Clear
9:53 PM 66.9 °F - 60.1 °F 79% 29.93 in 10.0 mi North 9.2 mph - N/A   Clear
10:53 PM 64.0 °F - 57.9 °F 80% 29.91 in 10.0 mi East 9.2 mph - N/A   Clear
11:53 PM 60.1 °F - 57.0 °F 90% 29.93 in 10.0 mi Calm Calm - N/A   Clear